period_start,C,m1,H,J0,J1,J2,J3,J4,J5,JA,JB,JC,JD,JJ,JK,JN,#
2017-01-09 00:00:41,0.20,4.84,0.00,15.93,19.31,23.21,14.86,49.48,1015.63,2059.96,2206.64,2049.68,2318.61,599.98,610.00,19.54,0000 0000 0000 0000 000000
2017-01-09 00:05:42,0.18,4.85,0.00,15.96,19.36,23.26,14.87,49.61,1015.64,2059.76,2204.33,2047.97,2316.68,599.99,610.08,19.59,0000 0000 0000 0000 000000
2017-01-09 00:10:43,0.13,4.86,0.00,15.99,19.39,23.24,14.90,49.62,1015.71,2059.25,2202.05,2046.63,2314.73,600.04,610.03,19.64,0000 0000 0000 0000 000000
2017-01-09 00:15:45,0.20,4.87,0.00,16.03,19.43,23.31,14.85,49.51,1016.01,2059.03,2199.62,2044.95,2312.74,600.03,610.15,19.69,0000 0000 0000 0000 000000
2017-01-09 00:20:46,0.20,4.88,0.00,16.05,19.48,23.38,14.88,49.67,1016.13,2059.01,2197.31,2043.39,2310.78,599.71,609.80,19.74,0000 0000 0000 0000 000000
2017-01-09 00:25:47,0.21,4.89,0.00,16.11,19.51,23.40,14.91,49.63,1016.17,2059.00,2195.01,2041.75,2308.85,599.96,609.95,19.79,0000 0000 0000 0000 000000
2017-01-09 00:30:49,0.19,4.90,0.00,16.14,19.55,23.43,14.85,49.48,1016.16,2058.98,2192.85,2040.18,2306.93,599.79,609.77,19.84,0000 0000 0000 0000 000000
2017-01-09 00:35:50,0.19,4.91,0.00,16.16,19.59,23.46,14.92,49.57,1016.19,2058.92,2190.74,2038.59,2305.07,599.81,609.66,19.89,0000 0000 0000 0000 000000
2017-01-09 00:40:51,0.11,4.92,0.00,16.20,19.63,23.51,14.91,49.44,1016.33,2058.35,2188.51,2037.00,2303.22,600.14,609.89,19.94,0000 0000 0000 0000 000000
2017-01-09 00:45:53,0.19,4.93,0.00,16.24,19.67,23.53,14.92,49.63,1016.15,2058.06,2186.25,2035.45,2301.36,600.20,609.84,19.99,0000 0000 0000 0000 000000
2017-01-09 00:50:54,0.20,4.94,0.00,16.27,19.70,23.60,14.90,49.52,1016.14,2058.00,2184.03,2033.80,2299.40,599.78,609.37,20.04,0000 0000 0000 0000 000000
2017-01-09 00:55:55,0.20,4.95,0.00,16.30,19.74,23.62,14.85,49.48,1016.30,2058.00,2181.77,2032.26,2297.54,599.66,609.33,20.09,0000 0000 0000 0000 000000
2017-01-09 01:00:57,0.21,4.96,0.00,16.35,19.78,23.66,14.94,49.45,1016.18,2057.98,2179.49,2030.63,2295.69,600.12,609.54,20.14,0000 0000 0000 0000 000000
2017-01-09 01:05:58,0.20,4.97,0.00,16.39,19.81,23.66,14.92,49.66,1016.13,2057.98,2177.19,2028.98,2293.77,599.95,609.18,20.19,0000 0000 0000 0000 000000
2017-01-09 01:10:59,0.18,4.98,0.00,16.42,19.85,23.74,14.91,49.58,1016.12,2057.87,2175.01,2027.46,2291.88,599.93,609.06,20.24,0000 0000 0000 0000 000000
2017-01-09 01:16:01,0.14,4.99,0.00,16.46,19.89,23.75,14.92,49.72,1016.08,2057.38,2172.91,2025.82,2289.97,600.01,609.18,20.29,0000 0000 0000 0000 000000
2017-01-09 01:21:02,0.17,4.99,0.00,16.50,19.93,23.79,14.89,49.81,1016.13,2057.05,2170.72,2024.27,2288.13,600.06,609.22,20.34,0000 0000 0000 0000 000000
2017-01-09 01:26:03,0.21,5.00,0.00,16.52,19.96,23.85,14.89,49.62,1016.15,2057.01,2168.46,2022.64,2286.16,600.21,609.15,20.39,0000 0000 0000 0000 000000
2017-01-09 01:31:05,0.19,5.02,0.00,16.57,20.00,23.88,14.84,49.33,1016.31,2057.00,2166.28,2021.10,2284.35,599.94,609.03,20.44,0000 0000 0000 0000 000000
2017-01-09 01:36:06,0.21,5.03,0.00,16.60,20.03,23.91,14.95,49.47,1016.59,2056.99,2164.03,2019.53,2282.45,600.49,609.67,20.49,0000 0000 0000 0000 000000
2017-01-09 01:41:07,0.20,5.04,0.00,16.62,20.07,23.96,14.89,49.61,1016.62,2056.97,2161.82,2017.90,2280.58,600.10,609.20,20.54,0000 0000 0000 0000 000000
2017-01-09 01:46:08,0.18,5.04,0.00,16.66,20.10,23.95,14.93,49.52,1016.69,2056.81,2159.69,2016.41,2278.73,600.04,609.24,20.59,0000 0000 0000 0000 000000
2017-01-09 01:51:09,0.13,5.05,0.00,16.70,20.13,24.00,14.80,49.41,1017.08,2056.27,2157.47,2014.78,2276.89,599.95,609.29,20.64,0000 0000 0000 0000 000000
2017-01-09 01:56:11,0.18,5.06,0.00,16.74,20.17,24.03,14.87,49.47,1017.10,2056.05,2155.27,2013.23,2275.06,599.63,608.87,20.69,0000 0000 0000 0000 000000
2017-01-09 02:01:11,0.21,5.07,0.00,16.78,20.20,24.08,14.92,49.48,1017.09,2056.00,2153.10,2011.66,2273.18,600.12,609.22,20.74,0000 0000 0000 0000 000000
2017-01-09 02:06:13,0.19,5.08,0.00,16.83,20.24,24.08,14.85,49.57,1017.04,2056.00,2150.98,2010.08,2271.35,599.79,608.64,20.79,0000 0000 0000 0000 000000
2017-01-09 02:11:14,0.21,5.09,0.00,16.88,20.28,24.14,14.98,49.56,1016.99,2055.99,2148.80,2008.44,2269.38,600.56,609.35,20.84,0000 0000 0000 0000 000000
2017-01-09 02:16:16,0.20,5.10,0.00,16.92,20.32,24.18,14.87,49.52,1017.08,2055.97,2146.66,2006.86,2267.56,599.89,608.69,20.89,0000 0000 0000 0000 000000
2017-01-09 02:21:17,0.16,5.11,0.00,16.96,20.35,24.21,14.89,49.47,1017.07,2055.78,2144.51,2005.31,2265.65,599.99,608.64,20.94,0000 0000 0000 0000 000000
2017-01-09 02:26:18,0.17,5.12,0.00,16.98,20.39,24.22,14.83,49.37,1017.08,2055.15,2142.26,2003.67,2263.75,599.67,608.45,20.99,0000 0000 0000 0000 000000
2017-01-09 02:31:19,0.18,5.13,0.00,17.03,20.43,24.27,14.86,49.44,1017.04,2055.02,2140.12,2002.11,2261.86,600.23,608.79,21.04,0000 0000 0000 0000 000000
2017-01-09 02:36:20,0.21,5.14,0.00,17.07,20.47,24.31,14.85,49.60,1016.85,2055.00,2137.98,2000.51,2259.98,600.02,608.37,21.09,0000 0000 0000 0000 000000
2017-01-09 02:41:21,0.23,5.15,0.00,17.08,20.51,24.31,14.82,49.44,1017.07,2054.99,2135.61,1998.76,2257.92,599.78,608.29,21.14,0000 0000 0000 0000 000000
2017-01-09 02:46:22,0.19,5.16,0.00,17.12,20.54,24.38,14.83,49.45,1017.09,2054.96,2133.32,1997.20,2256.11,600.00,608.38,21.19,0000 0000 0000 0000 000000
2017-01-09 02:51:24,0.20,5.17,0.00,17.15,20.58,24.41,14.88,49.50,1017.11,2054.86,2131.17,1995.62,2254.26,600.46,608.82,21.24,0000 0000 0000 0000 000000
2017-01-09 02:56:25,0.13,5.18,0.00,17.21,20.62,24.47,14.87,49.37,1017.12,2054.31,2128.94,1994.02,2252.40,599.88,608.23,21.29,0000 0000 0000 0000 000000
2017-01-09 03:01:26,0.20,5.19,0.00,17.25,20.65,24.53,14.87,49.50,1017.11,2054.03,2126.69,1992.46,2250.52,599.85,607.96,21.34,0000 0000 0000 0000 000000
2017-01-09 03:06:28,0.21,5.20,0.00,17.26,20.69,24.54,14.82,49.48,1017.06,2054.01,2124.55,1990.83,2248.63,599.76,607.94,21.39,0000 0000 0000 0000 000000
2017-01-09 03:11:29,0.20,5.21,0.00,17.29,20.73,24.59,14.85,49.45,1017.10,2054.00,2122.42,1989.32,2246.73,600.34,608.30,21.44,0000 0000 0000 0000 000000
2017-01-09 03:16:30,0.23,5.22,0.00,17.31,20.76,24.63,14.88,49.48,1017.10,2053.98,2120.15,1987.65,2244.77,599.90,607.89,21.49,0000 0000 0000 0000 000000
2017-01-09 03:21:31,0.20,5.23,0.00,17.33,20.80,24.66,14.83,49.38,1017.10,2053.94,2117.96,1986.08,2242.96,600.14,608.12,21.54,0000 0000 0000 0000 000000
2017-01-09 03:26:33,0.17,5.24,0.00,17.36,20.83,24.69,14.86,49.29,1017.12,2053.59,2115.61,1984.49,2241.05,599.88,607.83,21.59,0000 0000 0000 0000 000000
2017-01-09 03:31:34,0.15,5.25,0.00,17.39,20.87,24.73,14.83,49.32,1017.11,2053.25,2113.38,1982.96,2239.30,599.40,607.36,21.64,0000 0000 0000 0000 000000
2017-01-09 03:36:35,0.20,5.26,0.00,17.42,20.90,24.78,14.93,49.42,1017.11,2053.03,2111.17,1981.37,2237.42,600.17,607.94,21.69,0000 0000 0000 0000 000000
2017-01-09 03:41:36,0.22,5.27,0.00,17.45,20.93,24.79,14.85,49.43,1017.11,2053.00,2109.00,1979.74,2235.53,599.92,607.55,21.74,0000 0000 0000 0000 000000
2017-01-09 03:46:38,0.21,5.28,0.00,17.46,20.97,24.83,14.77,49.36,1017.11,2053.00,2106.75,1978.06,2233.61,599.31,607.13,21.79,0000 0000 0000 0000 000000
2017-01-09 03:51:39,0.22,5.29,0.00,17.47,21.00,24.86,14.81,49.37,1017.11,2052.99,2104.48,1976.43,2231.67,599.94,607.66,21.84,0000 0000 0000 0000 000000
2017-01-09 03:56:41,0.23,5.30,0.00,17.50,21.03,24.88,14.82,49.22,1017.10,2052.97,2102.15,1974.70,2229.72,599.71,607.31,21.89,0000 0000 0000 0000 000000
2017-01-09 04:01:42,0.23,5.31,0.00,17.54,21.07,24.94,14.83,49.30,1017.10,2052.92,2099.68,1972.97,2227.70,599.84,607.33,21.94,0000 0000 0000 0000 000000
2017-01-09 04:06:44,0.17,5.32,0.00,17.58,21.10,24.94,14.85,49.30,1017.10,2052.75,2097.41,1971.30,2225.77,600.09,607.53,21.99,0000 0000 0000 0000 000000
2017-01-09 04:11:45,0.16,5.33,0.00,17.62,21.13,24.98,14.86,49.36,1017.10,2052.23,2095.32,1969.69,2223.89,599.78,607.14,22.04,0000 0000 0000 0000 000000
2017-01-09 04:16:46,0.19,5.34,0.00,17.66,21.17,24.98,14.84,49.31,1017.11,2052.02,2093.17,1968.13,2221.97,599.95,607.27,22.09,0000 0000 0000 0000 000000
2017-01-09 04:21:47,0.21,5.35,0.00,17.70,21.20,25.01,14.85,49.17,1017.30,2052.00,2091.07,1966.60,2220.19,600.16,607.60,22.14,0000 0000 0000 0000 000000
2017-01-09 04:26:49,0.23,5.36,0.00,17.74,21.23,25.07,14.85,49.20,1017.44,2052.00,2088.64,1964.87,2218.22,599.79,607.15,22.19,0000 0000 0000 0000 000000
2017-01-09 04:31:50,0.21,5.37,0.00,17.76,21.27,25.07,14.87,49.34,1017.58,2052.00,2086.36,1963.28,2216.35,599.99,607.27,22.24,0000 0000 0000 0000 000000
2017-01-09 04:36:51,0.20,5.38,0.00,17.82,21.31,25.12,14.91,49.21,1017.57,2051.99,2084.39,1961.72,2214.58,600.03,607.26,22.29,0000 0000 0000 0000 000000
2017-01-09 04:41:53,0.20,5.39,0.00,17.86,21.34,25.17,14.85,49.18,1017.59,2051.93,2082.28,1960.14,2212.70,600.30,607.50,22.34,0000 0000 0000 0000 000000
2017-01-09 04:46:54,0.15,5.40,0.00,17.89,21.38,25.21,14.87,49.36,1017.59,2051.51,2080.25,1958.58,2210.82,600.17,607.32,22.39,0000 0000 0000 0000 000000
2017-01-09 04:51:56,0.17,5.41,0.00,17.92,21.41,25.24,14.82,49.48,1017.60,2051.08,2078.10,1956.96,2208.97,599.80,606.89,22.45,0000 0000 0000 0000 000000
2017-01-09 04:56:57,0.20,5.42,0.00,17.96,21.44,25.24,14.86,49.24,1017.64,2051.01,2075.99,1955.46,2207.11,600.21,607.05,22.50,0000 0000 0000 0000 000000
2017-01-09 05:01:58,0.23,5.43,0.00,18.09,21.48,25.28,14.84,49.37,1017.65,2051.00,2073.75,1953.81,2205.23,600.05,606.94,22.55,0000 0000 0000 0000 000000
2017-01-09 05:06:59,0.21,5.44,0.00,18.24,21.51,25.33,14.81,49.26,1017.61,2050.99,2071.56,1952.23,2203.37,600.25,606.40,22.60,0000 0000 0000 0000 000000
2017-01-09 05:12:00,0.24,5.46,0.00,18.33,21.54,25.33,14.79,49.30,1017.80,2050.97,2069.15,1950.49,2201.41,600.12,606.48,22.65,0000 0000 0000 0000 000000
2017-01-09 05:17:01,0.17,5.47,0.00,18.44,21.58,25.35,14.71,49.24,1017.93,2050.72,2066.96,1948.83,2199.58,599.65,605.78,22.70,0000 0000 0000 0000 000000
2017-01-09 05:22:03,0.14,5.47,0.00,18.51,21.62,25.34,14.72,49.23,1017.96,2050.12,2064.87,1947.33,2197.73,599.63,605.73,22.75,0000 0000 0000 0000 000000
2017-01-09 05:27:04,0.20,5.48,0.00,18.59,21.66,25.36,14.79,49.23,1017.83,2050.02,2062.85,1945.75,2195.90,600.06,605.83,22.80,0000 0000 0000 0000 000000
2017-01-09 05:32:05,0.20,5.49,0.00,18.61,21.71,25.37,14.77,49.27,1017.70,2050.00,2060.80,1944.24,2194.11,599.73,605.38,22.85,0000 0000 0000 0000 000000
2017-01-09 05:37:06,0.22,5.50,0.00,18.71,21.75,25.40,14.67,49.27,1017.61,2049.99,2058.68,1942.64,2192.31,599.52,604.86,22.90,0000 0000 0000 0000 000000
2017-01-09 05:42:08,0.19,5.51,0.00,18.81,21.79,25.45,14.73,49.25,1017.60,2049.96,2056.63,1941.10,2190.53,599.93,605.12,22.95,0000 0000 0000 0000 000000
2017-01-09 05:47:09,0.16,5.52,0.00,18.91,21.83,25.48,14.72,49.26,1017.61,2049.61,2054.48,1939.55,2188.68,600.08,605.01,23.00,0000 0000 0000 0000 000000
2017-01-09 05:52:10,0.19,5.53,0.00,19.00,21.88,25.54,14.72,49.11,1017.61,2049.09,2052.22,1937.84,2186.81,600.09,604.88,23.05,0000 0000 0000 0000 000000
2017-01-09 05:57:12,0.20,5.54,0.00,19.12,21.94,25.56,14.80,49.26,1017.61,2049.02,2050.05,1936.37,2184.97,600.16,604.64,23.10,0000 0000 0000 0000 000000
2017-01-09 06:02:13,0.23,5.55,0.00,19.15,21.99,25.61,14.73,49.26,1017.59,2049.00,2047.85,1934.74,2183.11,600.08,604.42,23.15,0000 0000 0000 0000 000000
2017-01-09 06:07:14,0.19,5.56,0.00,19.14,22.05,25.66,14.79,49.23,1017.59,2048.98,2045.94,1933.22,2181.32,600.12,604.62,23.20,0000 0000 0000 0000 000000
2017-01-09 06:12:16,0.16,5.57,0.00,19.24,22.10,25.72,14.67,49.11,1017.59,2048.64,2043.79,1931.59,2179.46,599.76,604.11,23.25,0000 0000 0000 0000 000000
2017-01-09 06:17:17,0.18,5.58,0.00,19.31,22.16,25.77,14.68,49.16,1017.59,2048.15,2041.72,1929.98,2177.62,599.87,604.02,23.30,0000 0000 0000 0000 000000
2017-01-09 06:22:18,0.20,5.59,0.00,19.29,22.22,25.85,14.70,49.34,1017.60,2048.01,2039.79,1928.45,2175.75,600.14,604.33,23.35,0000 0000 0000 0000 000000
2017-01-09 06:27:20,0.21,5.60,0.00,19.28,22.28,25.92,14.68,49.37,1017.66,2047.99,2037.74,1926.87,2174.05,600.10,604.48,23.40,0000 0000 0000 0000 000000
2017-01-09 06:32:21,0.13,5.61,0.00,19.32,22.34,25.97,14.70,49.23,1017.62,2047.50,2035.50,1925.18,2172.05,599.85,604.02,23.45,0000 0000 0000 0000 000000
2017-01-09 06:37:22,0.21,5.62,0.00,19.33,22.40,26.01,14.72,49.27,1017.65,2047.04,2033.24,1923.53,2170.23,600.23,604.43,23.50,0000 0000 0000 0000 000000
2017-01-09 06:42:24,0.19,5.63,0.00,19.36,22.46,26.08,14.75,49.36,1017.84,2047.01,2031.26,1922.01,2168.47,600.23,604.42,23.55,0000 0000 0000 0000 000000
2017-01-09 06:47:25,0.22,5.64,0.00,19.39,22.51,26.15,14.72,49.40,1018.05,2047.00,2029.29,1920.54,2166.66,599.89,604.13,23.60,0000 0000 0000 0000 000000
2017-01-09 06:52:26,0.22,5.65,0.00,19.40,22.57,26.19,14.73,49.21,1018.09,2047.00,2027.21,1918.99,2164.76,600.06,604.34,23.65,0000 0000 0000 0000 000000
2017-01-09 06:57:27,0.21,5.66,0.00,19.42,22.62,26.25,14.77,49.16,1018.11,2046.98,2025.07,1917.50,2162.98,600.28,604.54,23.70,0000 0000 0000 0000 000000
2017-01-09 07:02:29,0.11,5.67,0.00,19.43,22.68,26.34,14.74,49.38,1018.10,2046.55,2023.08,1915.98,2161.23,600.33,604.43,23.75,0000 0000 0000 0000 000000
2017-01-09 07:07:30,0.18,5.67,0.00,19.45,22.73,26.38,14.80,49.32,1018.13,2046.06,2021.15,1914.53,2159.54,600.40,604.45,23.80,0000 0000 0000 0000 000000
2017-01-09 07:12:31,0.21,5.69,0.00,19.46,22.78,26.45,14.77,49.31,1018.10,2046.00,2019.12,1912.93,2157.72,600.05,604.18,23.85,0000 0000 0000 0000 000000
2017-01-09 07:17:33,0.18,5.70,0.00,19.49,22.83,26.50,14.73,49.33,1018.09,2046.00,2017.29,1911.60,2156.06,599.70,603.81,23.90,0000 0000 0000 0000 000000
2017-01-09 07:22:34,0.19,5.71,0.00,19.51,22.88,26.57,14.73,49.52,1018.10,2045.93,2015.28,1910.05,2154.35,600.40,604.47,23.95,0000 0000 0000 0000 000000
2017-01-09 07:27:35,0.13,5.71,0.00,19.51,22.92,26.66,14.73,49.47,1018.23,2045.45,2013.32,1908.63,2152.65,599.85,603.94,24.00,0000 0000 0000 0000 000000
2017-01-09 07:32:36,0.16,5.72,0.00,19.55,22.97,26.70,14.72,49.24,1018.39,2045.05,2011.33,1907.20,2150.95,599.89,604.03,24.05,0000 0000 0000 0000 000000
2017-01-09 07:37:38,0.20,5.73,0.00,19.57,23.01,26.75,14.71,49.16,1018.56,2045.00,2009.43,1905.77,2149.36,599.95,604.08,24.10,0000 0000 0000 0000 000000
2017-01-09 07:42:39,0.19,5.74,0.00,19.60,23.05,26.83,14.79,49.24,1018.57,2044.99,2007.54,1904.38,2147.69,600.01,604.13,24.15,0000 0000 0000 0000 000000
2017-01-09 07:47:40,0.18,5.75,0.00,19.62,23.10,26.86,14.78,49.22,1018.57,2044.97,2005.70,1903.03,2146.12,600.07,604.18,24.20,0000 0000 0000 0000 000000
2017-01-09 07:52:41,0.16,5.76,0.00,19.63,23.13,26.91,14.72,49.24,1018.57,2044.71,2003.80,1901.63,2144.53,600.05,604.13,24.25,0000 0000 0000 0000 000000
2017-01-09 07:57:43,0.13,5.77,0.00,19.65,23.18,26.97,14.74,49.14,1018.57,2044.19,2001.88,1900.29,2142.87,600.19,604.08,24.30,0000 0000 0000 0000 000000
2017-01-09 08:02:44,0.20,5.78,0.00,19.66,23.21,26.99,14.81,49.15,1018.58,2044.04,1999.80,1898.80,2141.23,599.84,603.99,24.35,0000 0000 0000 0000 000000
2017-01-09 08:07:45,0.19,5.78,0.00,19.71,23.25,27.04,14.79,49.23,1018.57,2044.00,1997.91,1897.46,2139.62,600.49,604.38,24.40,0000 0000 0000 0000 000000
2017-01-09 08:12:46,0.18,5.80,0.00,19.72,23.28,27.07,14.71,49.19,1018.57,2044.00,1996.03,1896.05,2137.93,599.82,603.71,24.45,0000 0000 0000 0000 000000
2017-01-09 08:17:48,0.19,5.81,0.00,19.76,23.32,27.09,14.74,49.25,1018.58,2043.99,1994.26,1894.66,2136.45,599.90,603.66,24.50,0000 0000 0000 0000 000000
2017-01-09 08:22:49,0.18,5.81,0.00,19.78,23.36,27.14,14.75,49.19,1018.62,2043.97,1992.49,1893.36,2134.81,599.72,603.47,24.55,0000 0000 0000 0000 000000
2017-01-09 08:27:50,0.12,5.82,0.00,19.80,23.39,27.16,14.74,49.23,1018.65,2043.60,1990.73,1892.02,2133.30,600.10,603.87,24.60,0000 0000 0000 0000 000000
2017-01-09 08:32:51,0.16,5.83,0.00,19.81,23.42,27.19,14.74,49.27,1018.63,2043.12,1988.91,1890.66,2131.66,599.92,603.57,24.65,0000 0000 0000 0000 000000
2017-01-09 08:37:53,0.16,5.84,0.00,19.83,23.46,27.26,14.72,49.13,1018.96,2043.01,1987.11,1889.42,2130.17,600.07,603.99,24.70,0000 0000 0000 0000 000000
2017-01-09 08:42:54,0.17,5.85,0.00,19.86,23.49,27.28,14.79,49.14,1019.06,2043.00,1985.35,1888.16,2128.64,600.27,604.12,24.75,0000 0000 0000 0000 000000
2017-01-09 08:47:55,0.19,5.86,0.00,19.87,23.52,27.29,14.69,49.08,1019.06,2042.99,1983.62,1886.81,2127.22,599.68,603.52,24.80,0000 0000 0000 0000 000000
2017-01-09 08:52:56,0.19,5.87,0.00,19.90,23.55,27.34,14.70,49.23,1019.06,2042.97,1981.85,1885.53,2125.68,599.65,603.42,24.85,0000 0000 0000 0000 000000
2017-01-09 08:57:58,0.18,5.88,0.00,19.94,23.58,27.33,14.70,49.07,1019.06,2042.91,1979.90,1884.11,2124.07,599.87,603.55,24.90,0000 0000 0000 0000 000000
2017-01-09 09:02:59,0.16,5.88,0.00,19.95,23.61,27.35,14.75,49.20,1019.05,2042.60,1977.98,1882.72,2122.49,599.85,603.58,24.95,0000 0000 0000 0000 000000
2017-01-09 09:08:00,0.15,5.89,0.00,19.98,23.65,27.40,14.72,49.33,1018.93,2042.22,1976.13,1881.41,2120.91,600.18,603.73,25.00,0000 0000 0000 0000 000000
2017-01-09 09:13:01,0.16,5.90,0.00,20.01,23.68,27.44,14.75,49.31,1018.61,2042.06,1974.37,1880.11,2119.44,600.14,603.43,25.05,0000 0000 0000 0000 000000
2017-01-09 09:18:03,0.18,5.91,0.00,20.04,23.71,27.47,14.70,49.23,1018.57,2042.01,1972.72,1878.84,2117.85,599.86,603.14,25.10,0000 0000 0000 0000 000000
2017-01-09 09:23:04,0.20,5.92,0.00,20.05,23.74,27.49,14.77,49.66,1018.46,2042.00,1970.97,1877.46,2116.23,600.14,603.26,25.15,0000 0000 0000 0000 000000
2017-01-09 09:28:06,0.22,5.93,0.00,20.05,23.77,27.50,14.75,49.69,1018.09,2041.99,1968.95,1875.92,2114.42,600.09,602.99,25.20,0000 0000 0000 0000 000000
2017-01-09 09:33:07,0.21,5.94,0.00,20.07,23.80,27.53,14.78,49.69,1018.08,2041.96,1967.04,1874.50,2112.67,600.09,602.86,25.25,0000 0000 0000 0000 000000
2017-01-09 09:38:08,0.10,5.95,0.00,20.10,23.82,27.54,14.70,49.56,1018.14,2041.53,1965.17,1873.09,2111.11,599.93,602.82,25.30,0000 0000 0000 0000 000000
2017-01-09 09:43:10,0.16,5.96,0.00,20.11,23.85,27.59,14.78,49.68,1018.22,2041.10,1963.43,1871.77,2109.69,600.20,603.18,25.35,0000 0000 0000 0000 000000
2017-01-09 09:48:11,0.18,5.96,0.00,20.11,23.87,27.62,14.76,49.37,1018.44,2041.05,1961.68,1870.53,2108.23,600.38,603.29,25.40,0000 0000 0000 0000 000000
2017-01-09 09:53:12,0.17,5.97,0.00,20.16,23.90,27.63,14.82,49.65,1018.55,2041.01,1960.01,1869.31,2106.76,599.84,602.82,25.45,0000 0000 0000 0000 000000
2017-01-09 09:58:13,0.16,5.98,0.00,20.19,23.92,27.63,14.71,49.47,1018.57,2041.00,1958.41,1868.08,2105.39,599.88,602.76,25.51,0000 0000 0000 0000 000000
2017-01-09 10:03:14,0.18,5.99,0.00,20.21,23.94,27.69,14.81,49.52,1018.57,2041.00,1956.70,1866.88,2103.94,600.36,603.22,25.56,0000 0000 0000 0000 000000
2017-01-09 10:08:16,0.19,6.00,0.00,20.22,23.97,27.72,14.68,49.19,1018.58,2040.99,1954.99,1865.65,2102.53,600.00,602.84,25.61,0000 0000 0000 0000 000000
2017-01-09 10:13:17,0.16,6.01,0.00,20.26,23.99,27.69,14.74,49.25,1018.60,2040.98,1953.33,1864.51,2101.20,600.00,602.74,25.66,0000 0000 0000 0000 000000
2017-01-09 10:18:18,0.17,6.02,0.00,20.27,24.01,27.71,14.73,49.34,1018.57,2040.96,1951.76,1863.38,2099.85,600.18,602.93,25.71,0000 0000 0000 0000 000000
2017-01-09 10:23:19,0.13,6.03,0.00,20.31,24.04,27.75,14.72,49.29,1018.58,2040.86,1950.24,1862.26,2098.55,599.92,602.72,25.76,0000 0000 0000 0000 000000
2017-01-09 10:28:20,0.13,6.03,0.00,20.32,24.06,27.79,14.73,49.15,1018.57,2040.66,1948.70,1861.20,2097.36,599.97,602.64,25.81,0000 0000 0000 0000 000000
2017-01-09 10:33:21,0.08,6.04,0.00,20.35,24.09,27.79,14.74,49.30,1018.57,2040.17,1947.21,1860.10,2096.06,600.18,602.71,25.86,0000 0000 0000 0000 000000
2017-01-09 10:38:23,0.16,6.04,0.00,20.37,24.11,27.85,14.72,49.36,1018.57,2040.02,1945.72,1858.97,2094.77,600.00,602.43,25.91,0000 0000 0000 0000 000000
2017-01-09 10:43:24,0.16,6.05,0.00,20.39,24.14,27.84,14.69,49.42,1018.55,2040.00,1944.34,1857.83,2093.49,600.15,602.56,25.96,0000 0000 0000 0000 000000
2017-01-09 10:48:25,0.15,6.06,0.00,20.40,24.17,27.87,14.74,49.28,1018.57,2040.00,1942.84,1856.80,2092.22,600.02,602.50,26.01,0000 0000 0000 0000 000000
2017-01-09 10:53:27,0.15,6.07,0.00,20.44,24.19,27.91,14.68,49.31,1018.57,2040.00,1941.42,1855.79,2090.96,600.23,602.61,26.06,0000 0000 0000 0000 000000
2017-01-09 10:58:28,0.13,6.08,0.00,20.45,24.22,27.93,14.76,49.43,1018.58,2039.99,1940.00,1854.90,2089.80,600.03,602.24,26.11,0000 0000 0000 0000 000000
2017-01-09 11:03:29,0.19,6.08,0.00,20.47,24.24,27.94,14.67,49.52,1018.57,2039.98,1938.53,1853.80,2088.49,600.25,602.57,26.16,0000 0000 0000 0000 000000
2017-01-09 11:08:30,0.14,6.09,0.00,20.50,24.26,27.95,14.69,49.45,1018.47,2039.91,1936.98,1852.72,2087.19,599.91,602.12,26.21,0000 0000 0000 0000 000000
2017-01-09 11:13:32,0.11,6.10,0.00,20.51,24.28,27.98,14.71,49.49,1018.31,2039.48,1935.54,1851.63,2085.83,599.80,601.88,26.26,0000 0000 0000 0000 000000
2017-01-09 11:18:33,0.13,6.10,0.00,20.52,24.31,28.01,14.67,49.26,1018.14,2039.11,1934.03,1850.56,2084.59,599.72,601.73,26.31,0000 0000 0000 0000 000000
2017-01-09 11:23:34,0.15,6.11,0.00,20.53,24.33,28.02,14.77,49.34,1018.25,2039.03,1932.58,1849.54,2083.41,600.25,602.23,26.36,0000 0000 0000 0000 000000
2017-01-09 11:28:35,0.14,6.12,0.00,20.52,24.35,28.07,14.76,49.21,1018.26,2039.01,1931.06,1848.39,2082.12,600.36,602.27,26.41,0000 0000 0000 0000 000000
2017-01-09 11:33:37,0.15,6.13,0.00,20.55,24.37,28.06,14.71,49.31,1018.39,2039.00,1929.62,1847.45,2080.94,600.04,602.08,26.46,0000 0000 0000 0000 000000
2017-01-09 11:38:38,0.15,6.13,0.00,20.57,24.39,28.06,14.75,49.34,1018.50,2039.00,1928.23,1846.38,2079.71,600.36,602.54,26.51,0000 0000 0000 0000 000000
2017-01-09 11:43:39,0.15,6.14,0.00,20.57,24.41,28.12,14.73,49.27,1018.48,2038.99,1926.83,1845.42,2078.55,600.32,602.34,26.56,0000 0000 0000 0000 000000
2017-01-09 11:48:40,0.15,6.15,0.00,20.60,24.43,28.11,14.77,49.27,1018.54,2038.98,1925.45,1844.39,2077.38,599.94,602.02,26.61,0000 0000 0000 0000 000000
2017-01-09 11:53:42,0.14,6.16,0.00,20.63,24.45,28.13,14.76,49.24,1018.53,2038.97,1923.97,1843.37,2076.21,600.14,602.09,26.66,0000 0000 0000 0000 000000
2017-01-09 11:58:43,0.16,6.16,0.00,20.63,24.47,28.11,14.67,49.38,1018.45,2038.96,1922.55,1842.42,2075.00,599.90,601.78,26.71,0000 0000 0000 0000 000000
2017-01-09 12:03:44,0.14,6.17,0.00,20.67,24.50,28.16,14.70,49.40,1018.52,2038.88,1921.12,1841.33,2073.77,599.69,601.53,26.76,0000 0000 0000 0000 000000
2017-01-09 12:08:46,0.08,6.18,0.00,20.65,24.51,28.18,14.75,49.47,1018.57,2038.43,1919.76,1840.38,2072.58,600.17,602.25,26.81,0000 0000 0000 0000 000000
2017-01-09 12:13:47,0.13,6.18,0.00,20.67,24.53,28.20,14.75,49.44,1018.56,2038.19,1918.42,1839.39,2071.40,600.00,602.00,26.86,0000 0000 0000 0000 000000
2017-01-09 12:18:49,0.12,6.19,0.00,20.68,24.55,28.21,14.70,49.26,1018.54,2038.05,1917.04,1838.35,2070.23,599.99,601.89,26.91,0000 0000 0000 0000 000000
2017-01-09 12:23:50,0.15,6.20,0.00,20.69,24.57,28.24,14.69,49.23,1018.40,2038.01,1915.74,1837.39,2069.08,600.04,601.81,26.96,0000 0000 0000 0000 000000
2017-01-09 12:28:52,0.18,6.21,0.00,20.68,24.59,28.24,14.69,49.27,1018.13,2038.00,1914.15,1836.28,2067.72,599.69,601.27,27.01,0000 0000 0000 0000 000000
2017-01-09 12:33:53,0.30,6.22,0.00,20.70,24.61,28.25,14.73,49.36,1018.11,2038.00,1911.17,1834.32,2065.57,599.80,601.42,27.06,0000 0000 0000 0000 000000
2017-01-09 12:38:55,0.15,6.23,0.00,20.71,24.62,28.28,14.72,49.41,1018.11,2038.00,1909.71,1833.38,2064.43,600.05,601.59,27.11,0000 0000 0000 0000 000000
2017-01-09 12:43:56,0.15,6.24,0.00,20.72,24.65,28.29,14.69,49.53,1018.19,2037.99,1908.31,1832.35,2063.26,599.95,601.49,27.16,0000 0000 0000 0000 000000
2017-01-09 12:48:58,0.15,6.25,0.00,20.74,24.66,28.34,14.72,49.47,1018.34,2037.98,1906.80,1831.32,2062.01,600.01,601.65,27.21,0000 0000 0000 0000 000000
2017-01-09 12:53:59,0.14,6.25,0.00,20.76,24.68,28.32,14.72,49.60,1018.50,2037.96,1905.56,1830.38,2060.95,600.29,601.98,27.26,0000 0000 0000 0000 000000